Year,Month,Day,Hour,Minute,Value (Times are PST for windgust in km/hr)
2017,06,08,00,00,11.30
2017,06,08,00,01,11.30
2017,06,08,00,02,9.60
2017,06,08,00,03,16.10
2017,06,08,00,04,11.30
2017,06,08,00,05,19.30
2017,06,08,00,06,12.90
2017,06,08,00,07,11.30
2017,06,08,00,08,11.30
2017,06,08,00,09,20.90
2017,06,08,00,10,19.30
2017,06,08,00,11,17.70
2017,06,08,00,12,12.90
2017,06,08,00,13,17.70
2017,06,08,00,14,14.50
2017,06,08,00,15,9.60
2017,06,08,00,16,12.90
2017,06,08,00,17,24.20
2017,06,08,00,18,14.50
2017,06,08,00,19,17.70
2017,06,08,00,20,16.10
2017,06,08,00,21,17.70
2017,06,08,00,22,16.10
2017,06,08,00,23,20.90
2017,06,08,00,24,14.50
2017,06,08,00,25,14.50
2017,06,08,00,26,22.50
2017,06,08,00,27,20.90
2017,06,08,00,28,17.70
2017,06,08,00,29,16.10
2017,06,08,00,30,17.70
2017,06,08,00,31,22.50
2017,06,08,00,32,12.90
2017,06,08,00,33,14.50
2017,06,08,00,34,14.50
2017,06,08,00,35,14.50
2017,06,08,00,36,17.70
2017,06,08,00,37,16.10
2017,06,08,00,38,11.30
2017,06,08,00,39,14.50
2017,06,08,00,40,9.60
2017,06,08,00,41,14.50
2017,06,08,00,42,11.30
2017,06,08,00,43,14.50
2017,06,08,00,44,16.10
2017,06,08,00,45,12.90
2017,06,08,00,46,11.30
2017,06,08,00,47,11.30
2017,06,08,00,48,12.90
2017,06,08,00,49,12.90
2017,06,08,00,50,11.30
2017,06,08,00,51,11.30
2017,06,08,00,52,8.10
2017,06,08,00,53,6.40
2017,06,08,00,54,4.80
2017,06,08,00,55,16.10
2017,06,08,00,56,11.30
2017,06,08,00,57,6.40
2017,06,08,00,58,6.40
2017,06,08,00,59,8.10
2017,06,08,01,00,4.80
2017,06,08,01,01,11.30
2017,06,08,01,02,8.10
2017,06,08,01,03,6.40
2017,06,08,01,04,11.30
2017,06,08,01,05,11.30
2017,06,08,01,06,11.30
2017,06,08,01,07,8.10
2017,06,08,01,08,8.10
2017,06,08,01,09,9.60
2017,06,08,01,10,6.40
2017,06,08,01,11,9.60
2017,06,08,01,12,6.40
2017,06,08,01,13,8.10
2017,06,08,01,14,12.90
2017,06,08,01,15,4.80
2017,06,08,01,16,6.40
2017,06,08,01,17,12.90
2017,06,08,01,18,3.20
2017,06,08,01,19,6.40
2017,06,08,01,20,6.40
2017,06,08,01,21,8.10
2017,06,08,01,22,8.10
2017,06,08,01,23,6.40
2017,06,08,01,24,3.20
2017,06,08,01,25,9.60
2017,06,08,01,26,6.40
2017,06,08,01,27,8.10
2017,06,08,01,28,4.80
2017,06,08,01,29,6.40
2017,06,08,01,30,8.10
2017,06,08,01,31,8.10
2017,06,08,01,32,11.30
2017,06,08,01,33,8.10
2017,06,08,01,34,6.40
2017,06,08,01,35,8.10
2017,06,08,01,36,6.40
2017,06,08,01,37,8.10
2017,06,08,01,38,9.60
2017,06,08,01,39,6.40
2017,06,08,01,40,6.40
2017,06,08,01,41,6.40
2017,06,08,01,42,3.20
2017,06,08,01,43,3.20
2017,06,08,01,44,3.20
2017,06,08,01,45,3.20
2017,06,08,01,46,4.80
2017,06,08,01,47,4.80
2017,06,08,01,48,4.80
2017,06,08,01,49,8.10
2017,06,08,01,50,6.40
2017,06,08,01,51,6.40
2017,06,08,01,52,6.40
2017,06,08,01,53,8.10
2017,06,08,01,54,8.10
2017,06,08,01,55,6.40
2017,06,08,01,56,6.40
2017,06,08,01,57,8.10
2017,06,08,01,58,8.10
2017,06,08,01,59,8.10
2017,06,08,02,00,8.10
2017,06,08,02,01,6.40
2017,06,08,02,02,6.40
2017,06,08,02,03,4.80
2017,06,08,02,04,3.20
2017,06,08,02,05,3.20
2017,06,08,02,06,1.60
2017,06,08,02,07,1.60
2017,06,08,02,08,3.20
2017,06,08,02,09,3.20
2017,06,08,02,10,4.80
2017,06,08,02,11,4.80
2017,06,08,02,12,3.20
2017,06,08,02,13,3.20
2017,06,08,02,14,3.20
2017,06,08,02,15,4.80
2017,06,08,02,16,4.80
2017,06,08,02,17,6.40
2017,06,08,02,18,4.80
2017,06,08,02,19,6.40
2017,06,08,02,20,3.20
2017,06,08,02,21,6.40
2017,06,08,02,22,4.80
2017,06,08,02,23,4.80
2017,06,08,02,24,3.20
2017,06,08,02,25,1.60
2017,06,08,02,26,1.60
2017,06,08,02,27,1.60
2017,06,08,02,29,3.20
2017,06,08,02,30,1.60
2017,06,08,02,31,1.60
2017,06,08,02,32,1.60
2017,06,08,02,33,3.20
2017,06,08,02,34,3.20
2017,06,08,02,35,3.20
2017,06,08,02,36,1.60
2017,06,08,02,37,1.60
2017,06,08,02,38,1.60
2017,06,08,02,39,1.60
2017,06,08,02,40,3.20
2017,06,08,02,41,3.20
2017,06,08,02,42,3.20
2017,06,08,02,43,3.20
2017,06,08,02,44,3.20
2017,06,08,02,45,3.20
2017,06,08,02,46,3.20
2017,06,08,02,47,1.60
2017,06,08,02,48,1.60
2017,06,08,02,49,3.20
2017,06,08,02,50,1.60
2017,06,08,02,51,1.60
2017,06,08,02,52,3.20
2017,06,08,02,53,3.20
2017,06,08,02,54,3.20
2017,06,08,02,55,3.20
2017,06,08,02,56,3.20
2017,06,08,02,57,3.20
2017,06,08,02,58,3.20
2017,06,08,02,59,3.20
2017,06,08,03,00,1.60
2017,06,08,03,01,4.80
2017,06,08,03,02,6.40
2017,06,08,03,03,4.80
2017,06,08,03,04,4.80
2017,06,08,03,05,3.20
2017,06,08,03,06,4.80
2017,06,08,03,07,3.20
2017,06,08,03,08,3.20
2017,06,08,03,09,1.60
2017,06,08,03,10,1.60
2017,06,08,03,11,3.20
2017,06,08,03,12,3.20
2017,06,08,03,13,3.20
2017,06,08,03,14,3.20
2017,06,08,03,15,3.20
2017,06,08,03,16,3.20
2017,06,08,03,17,3.20
2017,06,08,03,18,1.60
2017,06,08,03,19,1.60
2017,06,08,03,20,3.20
2017,06,08,03,21,3.20
2017,06,08,03,22,3.20
2017,06,08,03,23,3.20
2017,06,08,03,24,1.60
2017,06,08,03,25,1.60
2017,06,08,03,27,1.60
2017,06,08,03,28,1.60
2017,06,08,03,29,4.80
2017,06,08,03,30,4.80
2017,06,08,03,31,3.20
2017,06,08,03,32,1.60
2017,06,08,03,33,3.20
2017,06,08,03,34,1.60
2017,06,08,03,35,3.20
2017,06,08,03,36,3.20
2017,06,08,03,37,3.20
2017,06,08,03,38,1.60
2017,06,08,03,39,3.20
2017,06,08,03,40,1.60
2017,06,08,03,41,1.60
2017,06,08,03,42,1.60
2017,06,08,03,43,1.60
2017,06,08,03,44,3.20
2017,06,08,03,45,1.60
2017,06,08,03,46,1.60
2017,06,08,03,47,3.20
2017,06,08,03,48,4.80
2017,06,08,03,49,4.80
2017,06,08,03,50,4.80
2017,06,08,03,51,4.80
2017,06,08,03,52,3.20
2017,06,08,03,53,4.80
2017,06,08,03,54,6.40
2017,06,08,03,55,4.80
2017,06,08,03,56,4.80
2017,06,08,03,57,6.40
2017,06,08,03,58,4.80
2017,06,08,03,59,3.20
2017,06,08,04,00,3.20
2017,06,08,04,01,1.60
2017,06,08,04,02,3.20
2017,06,08,04,03,3.20
2017,06,08,04,04,3.20
2017,06,08,04,05,4.80
2017,06,08,04,06,3.20
2017,06,08,04,07,4.80
2017,06,08,04,08,6.40
2017,06,08,04,09,4.80
2017,06,08,04,10,4.80
2017,06,08,04,11,4.80
2017,06,08,04,12,3.20
2017,06,08,04,13,1.60
2017,06,08,04,14,1.60
2017,06,08,04,15,1.60
2017,06,08,04,32,1.60
2017,06,08,04,34,1.60
2017,06,08,04,35,4.80
2017,06,08,04,36,8.10
2017,06,08,04,37,8.10
2017,06,08,04,38,3.20
2017,06,08,04,39,3.20
2017,06,08,04,40,3.20
2017,06,08,04,41,4.80
2017,06,08,04,42,4.80
2017,06,08,04,43,4.80
2017,06,08,04,44,8.10
2017,06,08,04,45,8.10
2017,06,08,04,46,8.10
2017,06,08,04,47,1.60
2017,06,08,04,48,6.40
2017,06,08,04,49,3.20
2017,06,08,04,50,4.80
2017,06,08,04,51,4.80
2017,06,08,04,52,4.80
2017,06,08,04,53,4.80
2017,06,08,04,54,4.80
2017,06,08,04,55,3.20
2017,06,08,04,56,3.20
2017,06,08,04,57,8.10
2017,06,08,04,58,4.80
2017,06,08,04,59,8.10
2017,06,08,05,00,3.20
2017,06,08,05,01,3.20
2017,06,08,05,02,1.60
2017,06,08,05,03,3.20
2017,06,08,05,04,3.20
2017,06,08,05,05,3.20
2017,06,08,05,06,1.60
2017,06,08,05,07,3.20
2017,06,08,05,08,1.60
2017,06,08,05,09,3.20
2017,06,08,05,10,3.20
2017,06,08,05,11,1.60
2017,06,08,05,12,1.60
2017,06,08,05,13,4.80
2017,06,08,05,14,3.20
2017,06,08,05,15,3.20
2017,06,08,05,16,3.20
2017,06,08,05,17,4.80
2017,06,08,05,18,3.20
2017,06,08,05,19,4.80
2017,06,08,05,20,3.20
2017,06,08,05,21,4.80
2017,06,08,05,22,3.20
2017,06,08,05,23,4.80
2017,06,08,05,24,4.80
2017,06,08,05,25,3.20
2017,06,08,05,26,3.20
2017,06,08,05,27,4.80
2017,06,08,05,28,4.80
2017,06,08,05,29,6.40
2017,06,08,05,30,8.10
2017,06,08,05,31,6.40
2017,06,08,05,32,4.80
2017,06,08,05,33,3.20
2017,06,08,05,34,6.40
2017,06,08,05,35,4.80
2017,06,08,05,36,3.20
2017,06,08,05,37,4.80
2017,06,08,05,38,4.80
2017,06,08,05,39,3.20
2017,06,08,05,40,6.40
2017,06,08,05,41,4.80
2017,06,08,05,42,3.20
2017,06,08,05,43,3.20
2017,06,08,05,44,4.80
2017,06,08,05,45,4.80
2017,06,08,05,46,1.60
2017,06,08,05,47,4.80
2017,06,08,05,48,3.20
2017,06,08,05,49,3.20
2017,06,08,05,50,3.20
2017,06,08,05,51,3.20
2017,06,08,05,52,1.60
2017,06,08,05,53,3.20
2017,06,08,05,54,1.60
2017,06,08,05,55,3.20
2017,06,08,05,56,3.20
2017,06,08,05,57,1.60
2017,06,08,05,58,1.60
2017,06,08,05,59,1.60
2017,06,08,06,01,1.60
2017,06,08,06,02,1.60
2017,06,08,06,03,1.60
2017,06,08,06,14,1.60
2017,06,08,06,16,1.60
2017,06,08,06,17,1.60
2017,06,08,06,18,1.60
2017,06,08,06,19,3.20
2017,06,08,06,20,1.60
2017,06,08,06,21,1.60
2017,06,08,06,22,1.60
2017,06,08,06,24,1.60
2017,06,08,06,25,1.60
2017,06,08,06,27,1.60
2017,06,08,06,28,1.60
2017,06,08,06,29,1.60
2017,06,08,06,30,1.60
2017,06,08,06,31,3.20
2017,06,08,06,32,3.20
2017,06,08,06,33,1.60
2017,06,08,06,34,1.60
2017,06,08,06,35,1.60
2017,06,08,06,36,1.60
2017,06,08,06,37,1.60
2017,06,08,06,38,1.60
2017,06,08,06,39,1.60
2017,06,08,06,40,1.60
2017,06,08,06,41,1.60
2017,06,08,06,42,1.60
2017,06,08,06,45,1.60
2017,06,08,07,08,1.60
2017,06,08,07,09,1.60
2017,06,08,07,11,1.60
2017,06,08,07,18,1.60
2017,06,08,07,19,1.60
2017,06,08,07,21,1.60
2017,06,08,07,22,1.60
2017,06,08,07,23,1.60
2017,06,08,07,24,1.60
2017,06,08,07,25,1.60
2017,06,08,07,26,1.60
2017,06,08,07,29,1.60
2017,06,08,07,32,1.60
2017,06,08,07,34,1.60
2017,06,08,07,35,1.60
2017,06,08,07,36,1.60
2017,06,08,07,38,1.60
2017,06,08,07,39,1.60
2017,06,08,07,40,3.20
2017,06,08,07,41,1.60
2017,06,08,07,43,1.60
2017,06,08,07,44,1.60
2017,06,08,07,46,1.60
2017,06,08,07,47,1.60
2017,06,08,07,48,1.60
2017,06,08,07,49,1.60
2017,06,08,08,04,1.60
2017,06,08,08,05,1.60
2017,06,08,08,06,1.60
2017,06,08,08,07,1.60
2017,06,08,08,08,1.60
2017,06,08,08,09,1.60
2017,06,08,08,10,1.60
2017,06,08,08,11,1.60
2017,06,08,08,12,1.60
2017,06,08,08,13,3.20
2017,06,08,08,14,1.60
2017,06,08,08,15,1.60
2017,06,08,08,16,3.20
2017,06,08,08,17,4.80
2017,06,08,08,18,3.20
2017,06,08,08,19,1.60
2017,06,08,08,20,3.20
2017,06,08,08,21,3.20
2017,06,08,08,22,4.80
2017,06,08,08,23,4.80
2017,06,08,08,24,4.80
2017,06,08,08,25,4.80
2017,06,08,08,26,4.80
2017,06,08,08,27,4.80
2017,06,08,08,28,4.80
2017,06,08,08,29,4.80
2017,06,08,08,30,4.80
2017,06,08,08,31,4.80
2017,06,08,08,32,3.20
2017,06,08,08,33,3.20
2017,06,08,08,34,1.60
2017,06,08,08,35,3.20
2017,06,08,08,36,4.80
2017,06,08,08,37,4.80
2017,06,08,08,38,4.80
2017,06,08,08,39,3.20
2017,06,08,08,40,3.20
2017,06,08,08,41,4.80
2017,06,08,08,42,8.10
2017,06,08,08,43,4.80
2017,06,08,08,44,6.40
2017,06,08,08,45,3.20
2017,06,08,08,46,4.80
2017,06,08,08,47,3.20
2017,06,08,08,48,4.80
2017,06,08,08,49,3.20
2017,06,08,08,50,3.20
2017,06,08,08,51,4.80
2017,06,08,08,52,4.80
2017,06,08,08,53,6.40
2017,06,08,08,54,4.80
2017,06,08,08,55,4.80
2017,06,08,08,56,4.80
2017,06,08,08,57,4.80
2017,06,08,08,58,3.20
2017,06,08,08,59,3.20
2017,06,08,09,00,3.20
2017,06,08,09,01,4.80
2017,06,08,09,02,3.20
2017,06,08,09,03,3.20
2017,06,08,09,04,3.20
2017,06,08,09,05,1.60
2017,06,08,09,06,3.20
2017,06,08,09,07,3.20
2017,06,08,09,08,3.20
2017,06,08,09,09,3.20
2017,06,08,09,10,4.80
2017,06,08,09,11,4.80
2017,06,08,09,12,3.20
2017,06,08,09,13,4.80
2017,06,08,09,14,4.80
2017,06,08,09,15,3.20
2017,06,08,09,16,4.80
2017,06,08,09,17,4.80
2017,06,08,09,18,4.80
2017,06,08,09,19,3.20
2017,06,08,09,20,4.80
2017,06,08,09,21,4.80
2017,06,08,09,22,4.80
2017,06,08,09,23,6.40
2017,06,08,09,24,6.40
2017,06,08,09,25,6.40
2017,06,08,09,26,6.40
2017,06,08,09,27,6.40
2017,06,08,09,28,4.80
2017,06,08,09,29,4.80
2017,06,08,09,30,6.40
2017,06,08,09,31,4.80
2017,06,08,09,32,4.80
2017,06,08,09,33,6.40
2017,06,08,09,34,6.40
2017,06,08,09,35,6.40
2017,06,08,09,36,4.80
2017,06,08,09,37,6.40
2017,06,08,09,38,11.30
2017,06,08,09,39,6.40
2017,06,08,09,40,6.40
2017,06,08,09,41,6.40
2017,06,08,09,42,4.80
2017,06,08,09,43,4.80
2017,06,08,09,44,3.20
2017,06,08,09,45,3.20
2017,06,08,09,46,3.20
2017,06,08,09,47,3.20
2017,06,08,09,48,3.20
2017,06,08,09,49,1.60
2017,06,08,09,50,1.60
2017,06,08,09,51,3.20
2017,06,08,09,52,3.20
2017,06,08,09,53,3.20
2017,06,08,09,54,4.80
2017,06,08,09,55,4.80
2017,06,08,09,56,3.20
2017,06,08,09,57,1.60
2017,06,08,09,58,3.20
2017,06,08,09,59,3.20
2017,06,08,10,00,3.20
2017,06,08,10,01,1.60
2017,06,08,10,02,3.20
2017,06,08,10,03,3.20
2017,06,08,10,04,4.80
2017,06,08,10,05,3.20
2017,06,08,10,06,3.20
2017,06,08,10,07,1.60
2017,06,08,10,10,1.60
2017,06,08,10,11,3.20
2017,06,08,10,12,4.80
2017,06,08,10,13,4.80
2017,06,08,10,14,4.80
2017,06,08,10,15,4.80
2017,06,08,10,16,4.80
2017,06,08,10,17,4.80
2017,06,08,10,18,3.20
2017,06,08,10,19,3.20
2017,06,08,10,20,3.20
2017,06,08,10,21,3.20
2017,06,08,10,22,4.80
2017,06,08,10,23,4.80
2017,06,08,10,24,3.20
2017,06,08,10,25,4.80
2017,06,08,10,26,3.20
2017,06,08,10,27,6.40
2017,06,08,10,28,3.20
2017,06,08,10,29,3.20
2017,06,08,10,30,8.10
2017,06,08,10,31,4.80
2017,06,08,10,32,6.40
2017,06,08,10,33,6.40
2017,06,08,10,34,4.80
2017,06,08,10,35,6.40
2017,06,08,10,36,4.80
2017,06,08,10,37,4.80
2017,06,08,10,38,4.80
2017,06,08,10,39,4.80
2017,06,08,10,40,4.80
2017,06,08,10,41,4.80
2017,06,08,10,42,4.80
2017,06,08,10,43,4.80
2017,06,08,10,44,4.80
2017,06,08,10,45,4.80
2017,06,08,10,46,4.80
2017,06,08,10,47,4.80
2017,06,08,10,48,4.80
2017,06,08,10,49,4.80
2017,06,08,10,50,4.80
2017,06,08,10,51,3.20
2017,06,08,10,52,3.20
2017,06,08,10,53,4.80
2017,06,08,10,54,4.80
2017,06,08,10,55,3.20
2017,06,08,10,56,4.80
2017,06,08,10,57,6.40
2017,06,08,10,58,4.80
2017,06,08,10,59,4.80
2017,06,08,11,00,6.40
2017,06,08,11,01,6.40
2017,06,08,11,02,4.80
2017,06,08,11,03,4.80
2017,06,08,11,04,4.80
2017,06,08,11,05,4.80
2017,06,08,11,06,4.80
2017,06,08,11,07,4.80
2017,06,08,11,08,3.20
2017,06,08,11,09,4.80
2017,06,08,11,10,4.80
2017,06,08,11,11,4.80
2017,06,08,11,12,4.80
2017,06,08,11,13,6.40
2017,06,08,11,14,6.40
2017,06,08,11,15,4.80
2017,06,08,11,16,4.80
2017,06,08,11,17,6.40
2017,06,08,11,18,4.80
2017,06,08,11,19,4.80
2017,06,08,11,20,4.80
2017,06,08,11,21,4.80
2017,06,08,11,22,4.80
2017,06,08,11,23,4.80
2017,06,08,11,24,4.80
2017,06,08,11,25,6.40
2017,06,08,11,26,4.80
2017,06,08,11,27,6.40
2017,06,08,11,28,4.80
2017,06,08,11,29,4.80
2017,06,08,11,30,4.80
2017,06,08,11,31,3.20
2017,06,08,11,32,3.20
2017,06,08,11,33,4.80
2017,06,08,11,34,4.80
2017,06,08,11,35,3.20
2017,06,08,11,36,1.60
2017,06,08,11,37,3.20
2017,06,08,11,38,8.10
2017,06,08,11,39,6.40
2017,06,08,11,40,9.60
2017,06,08,11,41,4.80
2017,06,08,11,42,11.30
2017,06,08,11,43,8.10
2017,06,08,11,44,4.80
2017,06,08,11,45,4.80
2017,06,08,11,46,3.20
2017,06,08,11,47,4.80
2017,06,08,11,48,4.80
2017,06,08,11,49,8.10
2017,06,08,11,50,9.60
2017,06,08,11,51,12.90
2017,06,08,11,52,8.10
2017,06,08,11,53,11.30
2017,06,08,11,54,8.10
2017,06,08,11,55,11.30
2017,06,08,11,56,12.90
2017,06,08,11,57,12.90
2017,06,08,11,58,14.50
2017,06,08,11,59,14.50
2017,06,08,12,00,16.10
2017,06,08,12,01,14.50
2017,06,08,12,02,12.90
2017,06,08,12,03,11.30
2017,06,08,12,04,11.30
2017,06,08,12,05,12.90
2017,06,08,12,06,8.10
2017,06,08,12,07,12.90
2017,06,08,12,08,9.60
2017,06,08,12,09,14.50
2017,06,08,12,10,20.90
2017,06,08,12,11,14.50
2017,06,08,12,12,14.50
2017,06,08,12,13,16.10
2017,06,08,12,14,11.30
2017,06,08,12,15,11.30
2017,06,08,12,16,11.30
2017,06,08,12,17,12.90
2017,06,08,12,18,16.10
2017,06,08,12,19,6.40
2017,06,08,12,20,9.60
2017,06,08,12,21,14.50
2017,06,08,12,22,12.90
2017,06,08,12,23,11.30
2017,06,08,12,24,8.10
2017,06,08,12,25,16.10
2017,06,08,12,26,20.90
2017,06,08,12,27,19.30
2017,06,08,12,28,22.50
2017,06,08,12,29,14.50
2017,06,08,12,30,17.70
2017,06,08,12,31,11.30
2017,06,08,12,32,12.90
2017,06,08,12,33,16.10
2017,06,08,12,34,6.40
2017,06,08,12,35,8.10
2017,06,08,12,36,12.90
2017,06,08,12,37,11.30
2017,06,08,12,38,8.10
2017,06,08,12,39,8.10
2017,06,08,12,40,11.30
2017,06,08,12,41,12.90
2017,06,08,12,42,11.30
2017,06,08,12,43,11.30
2017,06,08,12,44,11.30
2017,06,08,12,45,16.10
2017,06,08,12,46,16.10
2017,06,08,12,47,9.60
2017,06,08,12,48,8.10
2017,06,08,12,49,9.60
2017,06,08,12,50,8.10
2017,06,08,12,51,8.10
2017,06,08,12,52,8.10
2017,06,08,12,53,9.60
2017,06,08,12,54,9.60
2017,06,08,12,55,4.80
2017,06,08,12,56,6.40
2017,06,08,12,57,9.60
2017,06,08,12,58,12.90
2017,06,08,12,59,8.10
2017,06,08,13,00,8.10
2017,06,08,13,01,8.10
2017,06,08,13,02,8.10
2017,06,08,13,03,8.10
2017,06,08,13,04,6.40
2017,06,08,13,05,11.30
2017,06,08,13,06,8.10
2017,06,08,13,07,9.60
2017,06,08,13,08,9.60
2017,06,08,13,09,9.60
2017,06,08,13,10,14.50
2017,06,08,13,11,11.30
2017,06,08,13,12,9.60
2017,06,08,13,13,16.10
2017,06,08,13,14,16.10
2017,06,08,13,15,17.70
2017,06,08,13,16,11.30
2017,06,08,13,17,14.50
2017,06,08,13,18,16.10
2017,06,08,13,19,11.30
2017,06,08,13,20,11.30
2017,06,08,13,21,19.30
2017,06,08,13,22,11.30
2017,06,08,13,23,14.50
2017,06,08,13,24,20.90
2017,06,08,13,25,19.30
2017,06,08,13,26,24.20
2017,06,08,13,27,24.20
2017,06,08,13,28,24.20
2017,06,08,13,29,19.30
2017,06,08,13,30,16.10
2017,06,08,13,31,14.50
2017,06,08,13,32,17.70
2017,06,08,13,33,17.70
2017,06,08,13,34,12.90
2017,06,08,13,35,17.70
2017,06,08,13,36,17.70
2017,06,08,13,37,17.70
2017,06,08,13,38,16.10
2017,06,08,13,39,27.40
2017,06,08,13,40,16.10
2017,06,08,13,41,16.10
2017,06,08,13,42,12.90
2017,06,08,13,43,14.50
2017,06,08,13,44,16.10
2017,06,08,13,45,16.10
2017,06,08,13,46,11.30
2017,06,08,13,47,25.70
2017,06,08,13,48,12.90
2017,06,08,13,49,22.50
2017,06,08,13,50,16.10
2017,06,08,13,51,12.90
2017,06,08,13,52,14.50
2017,06,08,13,53,9.60
2017,06,08,13,54,20.90
2017,06,08,13,55,16.10
2017,06,08,13,56,19.30
2017,06,08,13,57,16.10
2017,06,08,13,58,25.70
2017,06,08,13,59,12.90
2017,06,08,14,00,9.60
2017,06,08,14,01,12.90
2017,06,08,14,02,17.70
2017,06,08,14,03,14.50
2017,06,08,14,04,17.70
2017,06,08,14,05,22.50
2017,06,08,14,06,24.20
2017,06,08,14,07,19.30
2017,06,08,14,08,22.50
2017,06,08,14,09,19.30
2017,06,08,14,10,17.70
2017,06,08,14,11,14.50
2017,06,08,14,12,22.50
2017,06,08,14,13,19.30
2017,06,08,14,14,24.20
2017,06,08,14,15,24.20
2017,06,08,14,16,17.70
2017,06,08,14,17,19.30
2017,06,08,14,18,17.70
2017,06,08,14,19,16.10
2017,06,08,14,20,19.30
2017,06,08,14,21,14.50
2017,06,08,14,22,20.90
2017,06,08,14,23,25.70
2017,06,08,14,24,22.50
2017,06,08,14,25,25.70
2017,06,08,14,26,17.70
2017,06,08,14,27,25.70
2017,06,08,14,28,22.50
2017,06,08,14,29,25.70
2017,06,08,14,30,29.00
2017,06,08,14,31,27.40
2017,06,08,14,32,24.20
2017,06,08,14,33,24.20
2017,06,08,14,34,19.30
2017,06,08,14,35,25.70
2017,06,08,14,36,29.00
2017,06,08,14,37,25.70
2017,06,08,14,38,22.50
2017,06,08,14,39,32.20
2017,06,08,14,40,29.00
2017,06,08,14,41,22.50
2017,06,08,14,42,29.00
2017,06,08,14,43,27.40
2017,06,08,14,44,24.20
2017,06,08,14,45,24.20
2017,06,08,14,46,24.20
2017,06,08,14,47,29.00
2017,06,08,14,48,25.70
2017,06,08,14,49,29.00
2017,06,08,14,50,30.60
2017,06,08,14,51,27.40
2017,06,08,14,52,29.00
2017,06,08,14,53,30.60
2017,06,08,14,54,32.20
2017,06,08,14,55,22.50
2017,06,08,14,56,29.00
2017,06,08,14,57,19.30
2017,06,08,14,58,27.40
2017,06,08,14,59,30.60
2017,06,08,15,00,27.40
2017,06,08,15,01,22.50
2017,06,08,15,02,25.70
2017,06,08,15,03,20.90
2017,06,08,15,04,24.20
2017,06,08,15,05,17.70
2017,06,08,15,06,19.30
2017,06,08,15,07,20.90
2017,06,08,15,08,22.50
2017,06,08,15,09,27.40
2017,06,08,15,10,19.30
2017,06,08,15,11,22.50
2017,06,08,15,12,30.60
2017,06,08,15,13,29.00
2017,06,08,15,14,19.30
2017,06,08,15,15,19.30
2017,06,08,15,16,33.80
2017,06,08,15,17,33.80
2017,06,08,15,18,22.50
2017,06,08,15,19,30.60
2017,06,08,15,20,27.40
2017,06,08,15,21,25.70
2017,06,08,15,22,20.90
2017,06,08,15,23,32.20
2017,06,08,15,24,25.70
2017,06,08,15,25,22.50
2017,06,08,15,26,29.00
2017,06,08,15,27,29.00
2017,06,08,15,28,35.40
2017,06,08,15,29,33.80
2017,06,08,15,30,33.80
2017,06,08,15,31,29.00
2017,06,08,15,32,35.40
2017,06,08,15,33,27.40
2017,06,08,15,34,29.00
2017,06,08,15,35,27.40
2017,06,08,15,36,35.40
2017,06,08,15,37,25.70
2017,06,08,15,38,33.80
2017,06,08,15,39,32.20
2017,06,08,15,40,24.20
2017,06,08,15,41,33.80
2017,06,08,15,42,33.80
2017,06,08,15,43,27.40
2017,06,08,15,44,27.40
2017,06,08,15,45,29.00
2017,06,08,15,46,29.00
2017,06,08,15,47,32.20
2017,06,08,15,48,29.00
2017,06,08,15,49,37.00
2017,06,08,15,50,24.20
2017,06,08,15,51,41.80
2017,06,08,15,52,35.40
2017,06,08,15,53,33.80
2017,06,08,15,54,25.70
2017,06,08,15,55,30.60
2017,06,08,15,56,35.40
2017,06,08,15,57,30.60
2017,06,08,15,58,29.00
2017,06,08,15,59,40.20
2017,06,08,16,00,25.70
2017,06,08,16,01,32.20
2017,06,08,16,02,27.40
2017,06,08,16,03,37.00
2017,06,08,16,04,37.00
2017,06,08,16,05,32.20
2017,06,08,16,06,45.10
2017,06,08,16,07,37.00
2017,06,08,16,08,32.20
2017,06,08,16,09,32.20
2017,06,08,16,10,35.40
2017,06,08,16,11,37.00
2017,06,08,16,12,33.80
2017,06,08,16,13,32.20
2017,06,08,16,14,48.30
2017,06,08,16,15,40.20
2017,06,08,16,16,37.00
2017,06,08,16,17,43.50
2017,06,08,16,18,35.40
2017,06,08,16,19,35.40
2017,06,08,16,20,37.00
2017,06,08,16,21,33.80
2017,06,08,16,22,40.20
2017,06,08,16,23,27.40
2017,06,08,16,24,41.80
2017,06,08,16,25,35.40
2017,06,08,16,26,40.20
2017,06,08,16,27,48.30
2017,06,08,16,28,43.50
2017,06,08,16,29,33.80
2017,06,08,16,30,37.00
2017,06,08,16,31,29.00
2017,06,08,16,32,38.60
2017,06,08,16,33,48.30
2017,06,08,16,34,32.20
2017,06,08,16,35,37.00
2017,06,08,16,36,29.00
2017,06,08,16,37,41.80
2017,06,08,16,38,35.40
2017,06,08,16,39,33.80
2017,06,08,16,40,33.80
2017,06,08,16,41,38.60
2017,06,08,16,42,43.50
2017,06,08,16,43,48.30
2017,06,08,16,44,37.00
2017,06,08,16,45,29.00
2017,06,08,16,46,32.20
2017,06,08,16,47,41.80
2017,06,08,16,48,32.20
2017,06,08,16,49,35.40
2017,06,08,16,50,25.70
2017,06,08,16,51,19.30
2017,06,08,16,52,37.00
2017,06,08,16,53,33.80
2017,06,08,16,54,30.60
2017,06,08,16,55,35.40
2017,06,08,16,56,35.40
2017,06,08,16,57,27.40
2017,06,08,16,58,35.40
2017,06,08,16,59,37.00
2017,06,08,17,00,25.70
2017,06,08,17,01,30.60
2017,06,08,17,02,35.40
2017,06,08,17,03,32.20
2017,06,08,17,04,38.60
2017,06,08,17,05,38.60
2017,06,08,17,06,32.20
2017,06,08,17,07,38.60
2017,06,08,17,08,29.00
2017,06,08,17,09,33.80
2017,06,08,17,10,33.80
2017,06,08,17,11,33.80
2017,06,08,17,12,40.20
2017,06,08,17,13,32.20
2017,06,08,17,14,33.80
2017,06,08,17,15,37.00
2017,06,08,17,16,33.80
2017,06,08,17,17,29.00
2017,06,08,17,18,27.40
2017,06,08,17,19,27.40
2017,06,08,17,20,35.40
2017,06,08,17,21,32.20
2017,06,08,17,22,37.00
2017,06,08,17,23,27.40
2017,06,08,17,24,24.20
2017,06,08,17,25,29.00
2017,06,08,17,26,24.20
2017,06,08,17,27,19.30
2017,06,08,17,28,29.00
2017,06,08,17,29,37.00
2017,06,08,17,30,33.80
2017,06,08,17,31,25.70
2017,06,08,17,32,38.60
2017,06,08,17,33,25.70
2017,06,08,17,34,29.00
2017,06,08,17,35,29.00
2017,06,08,17,36,33.80
2017,06,08,17,37,32.20
2017,06,08,17,38,27.40
2017,06,08,17,39,33.80
2017,06,08,17,40,27.40
2017,06,08,17,41,29.00
2017,06,08,17,42,33.80
2017,06,08,17,43,24.20
2017,06,08,17,44,24.20
2017,06,08,17,45,29.00
2017,06,08,17,46,32.20
2017,06,08,17,47,27.40
2017,06,08,17,48,30.60
2017,06,08,17,49,29.00
2017,06,08,17,50,35.40
2017,06,08,17,51,37.00
2017,06,08,17,52,27.40
2017,06,08,17,53,33.80
2017,06,08,17,54,27.40
2017,06,08,17,55,30.60
2017,06,08,17,56,24.20
2017,06,08,17,57,22.50
2017,06,08,17,58,29.00
2017,06,08,17,59,24.20
2017,06,08,18,00,29.00
2017,06,08,18,01,25.70
2017,06,08,18,02,27.40
2017,06,08,18,03,29.00
2017,06,08,18,04,16.10
2017,06,08,18,05,17.70
2017,06,08,18,06,25.70
2017,06,08,18,07,24.20
2017,06,08,18,08,22.50
2017,06,08,18,09,20.90
2017,06,08,18,10,22.50
2017,06,08,18,11,30.60
2017,06,08,18,12,24.20
2017,06,08,18,13,32.20
2017,06,08,18,14,24.20
2017,06,08,18,15,20.90
2017,06,08,18,16,24.20
2017,06,08,18,17,20.90
2017,06,08,18,18,19.30
2017,06,08,18,19,27.40
2017,06,08,18,20,27.40
2017,06,08,18,21,20.90
2017,06,08,18,22,38.60
2017,06,08,18,23,25.70
2017,06,08,18,24,29.00
2017,06,08,18,25,43.50
2017,06,08,18,26,32.20
2017,06,08,18,27,22.50
2017,06,08,18,28,27.40
2017,06,08,18,29,30.60
2017,06,08,18,30,27.40
2017,06,08,18,31,27.40
2017,06,08,18,32,22.50
2017,06,08,18,33,32.20
2017,06,08,18,34,25.70
2017,06,08,18,35,22.50
2017,06,08,18,36,29.00
2017,06,08,18,37,29.00
2017,06,08,18,38,19.30
2017,06,08,18,39,30.60
2017,06,08,18,40,27.40
2017,06,08,18,41,24.20
2017,06,08,18,42,20.90
2017,06,08,18,43,24.20
2017,06,08,18,44,29.00
2017,06,08,18,45,27.40
2017,06,08,18,46,22.50
2017,06,08,18,47,32.20
2017,06,08,18,48,20.90
2017,06,08,18,49,29.00
2017,06,08,18,50,35.40
2017,06,08,18,51,24.20
2017,06,08,18,52,24.20
2017,06,08,18,53,27.40
2017,06,08,18,54,12.90
2017,06,08,18,55,24.20
2017,06,08,18,56,25.70
2017,06,08,18,57,17.70
2017,06,08,18,58,24.20
2017,06,08,18,59,30.60
2017,06,08,19,00,27.40
2017,06,08,19,01,22.50
2017,06,08,19,02,29.00
2017,06,08,19,03,22.50
2017,06,08,19,04,25.70
2017,06,08,19,05,29.00
2017,06,08,19,06,20.90
2017,06,08,19,07,27.40
2017,06,08,19,08,22.50
2017,06,08,19,09,22.50
2017,06,08,19,10,27.40
2017,06,08,19,11,32.20
2017,06,08,19,12,22.50
2017,06,08,19,13,20.90
2017,06,08,19,14,22.50